Date String (YYYY-MM-DD hh:mm:ss) UTC,Instrument flags,absolute air pressure of the measurement (hPa),sample flow rate (lpm),inlet stack bypass flow (lpm),air temperature of the measurement (°C),ambient temperature measured by the external sensor (°C),aerosol sample conditioner tube jacket temperature (°C),OPC LED temperature (°C),internal box temperature (°C),relative humidity of the measurement (%),span deviation,mass concentration of particles derived from Lorenz-Mie calculation of OPC scattering (μg/m³),mass concentration of particles derived from Lorenz-Mie calculation of OPC scattering (μg/m³),mass concentration of particles derived from Lorenz-Mie calculation of OPC scattering (μg/m³)
DateTimeUTC,F1_M11,P_M11,Q1_M11,Q2_M11,T1_M11,T2_M11,T3_M11,T4_M11,T5_M11,U1_M11,ZSPAN_M11,X0_M11,X2_M11,X1_M11
2023-07-18 18:00:00,SystemResetWarning,0832.5,5.00,000.00,028.7,025.7,000.0,036.8,030.1,19.5,0000.0,0010.45,0005.25,0004.64
2023-07-18 18:01:00,SystemResetWarning,0832.6,5.01,000.00,028.6,025.3,000.0,036.7,030.0,19.7,0000.0,0010.59,0005.28,0004.65
2023-07-18 18:02:00,SystemResetWarning,0832.5,5.02,000.00,028.6,025.7,000.0,036.7,030.0,19.8,0000.0,0012.47,0005.33,0004.66
2023-07-18 18:03:00,SystemResetWarning,0832.5,4.99,000.00,028.6,026.1,000.0,036.8,030.1,19.8,0000.0,0012.63,0005.33,0004.66
2023-07-18 18:04:00,SystemResetWarning,0832.5,4.99,000.00,028.6,026.5,000.0,036.8,030.2,20.9,0000.0,0012.32,0005.29,0004.66
2023-07-18 18:05:00,SystemResetWarning,0832.5,5.00,000.00,028.6,026.9,000.0,036.9,030.3,21.1,0000.0,0012.43,0005.26,0004.67
2023-07-18 18:06:00,SystemResetWarning,0832.5,5.00,000.00,028.7,026.8,000.0,036.9,030.3,20.3,0000.0,0012.48,0005.27,0004.67
2023-07-18 18:07:00,SystemResetWarning,0832.5,4.99,000.00,028.6,025.6,000.0,036.8,030.1,19.2,0000.0,0012.99,0005.31,0004.67
2023-07-18 18:08:00,SystemResetWarning,0832.5,5.01,000.00,028.6,025.2,000.0,036.7,030.1,19.4,0000.0,0013.29,0005.36,0004.68
2023-07-18 18:09:00,SystemResetWarning,0832.5,5.01,000.00,028.6,025.7,000.0,036.7,030.0,19.8,0000.0,0013.14,0005.35,0004.69
2023-07-18 18:10:00,SystemResetWarning,0832.4,4.99,000.00,028.5,026.1,000.0,036.8,030.0,19.8,0000.0,0012.95,0005.32,0004.68
2023-07-18 18:11:00,SystemResetWarning,0832.4,5.00,000.00,028.6,026.5,000.0,036.8,030.1,20.5,0000.0,0012.94,0005.28,0004.66
2023-07-18 18:12:00,SystemResetWarning,0832.3,5.01,000.00,028.6,026.9,000.0,036.9,030.2,20.1,0000.0,0012.98,0005.26,0004.65
2023-07-18 18:13:00,SystemResetWarning,0832.3,5.00,000.00,028.7,027.1,000.0,036.9,030.4,22.9,0000.0,0011.77,0005.24,0004.66
2023-07-18 18:14:00,SystemResetWarning,0832.3,4.98,000.00,028.7,026.3,000.0,036.8,030.3,23.7,0000.0,0011.33,0005.20,0004.65
2023-07-18 18:15:00,SystemResetWarning,0832.4,5.01,000.00,028.6,025.3,000.0,036.8,030.0,22.4,0000.0,0011.32,0005.19,0004.64
2023-07-18 18:16:00,SystemResetWarning,0832.3,5.01,000.00,028.6,025.6,000.0,036.7,030.1,21.8,0000.0,0011.13,0005.21,0004.65
2023-07-18 18:17:00,SystemResetWarning,0832.3,5.00,000.00,028.6,025.9,000.0,036.8,030.0,22.2,0000.0,0010.38,0005.20,0004.66
2023-07-18 18:18:00,SystemResetWarning,0832.4,5.00,000.00,028.6,026.3,000.0,036.8,030.2,20.7,0000.0,0009.91,0005.19,0004.67
2023-07-18 18:19:00,SystemResetWarning,0832.4,5.00,000.00,028.6,026.8,000.0,036.9,030.2,19.9,0000.0,0009.79,0005.18,0004.67
2023-07-18 18:20:00,SystemResetWarning,0832.4,4.99,000.00,028.6,026.5,000.0,036.8,030.3,19.9,0000.0,0009.72,0005.16,0004.66
2023-07-18 18:21:00,SystemResetWarning,0832.5,4.98,000.00,028.6,025.2,000.0,036.7,030.1,20.2,0000.0,0009.53,0005.16,0004.67
2023-07-18 18:22:00,SystemResetWarning,0832.5,5.02,000.00,028.5,025.1,000.0,036.7,030.0,21.1,0000.0,0009.55,0005.18,0004.69
2023-07-18 18:23:00,SystemResetWarning,0832.5,5.00,000.00,028.5,025.5,000.0,036.7,030.0,22.2,0000.0,0010.07,0005.18,0004.69
2023-07-18 18:24:00,SystemResetWarning,0832.5,4.99,000.00,028.5,025.9,000.0,036.8,030.0,21.6,0000.0,0010.39,0005.19,0004.71
2023-07-18 18:25:00,SystemResetWarning,0832.5,5.00,000.00,028.5,026.4,000.0,036.8,030.1,21.6,0000.0,0011.60,0005.27,0004.77
2023-07-18 18:26:00,SystemResetWarning,0832.5,5.00,000.00,028.6,026.8,000.0,036.8,030.2,23.1,0000.0,0012.03,0005.41,0004.83
2023-07-18 18:27:00,SystemResetWarning,0832.5,4.99,000.00,028.6,026.4,000.0,036.8,030.2,22.8,0000.0,0011.98,0005.51,0004.86
2023-07-18 18:28:00,SystemResetWarning,0832.5,5.00,000.00,028.5,025.1,000.0,036.7,030.0,21.7,0000.0,0012.32,0005.54,0004.89
2023-07-18 18:29:00,SystemResetWarning,0832.5,5.01,000.00,028.5,025.0,000.0,036.6,030.0,21.9,0000.0,0013.27,0005.60,0004.91
2023-07-18 18:30:00,SystemResetWarning,0832.5,5.02,000.00,028.5,025.4,000.0,036.7,029.9,22.1,0000.0,0013.92,0005.65,0004.94
2023-07-18 18:31:00,SystemResetWarning,0832.5,5.00,000.00,028.4,025.8,000.0,036.7,029.9,21.3,0000.0,0014.46,0005.66,0004.96
2023-07-18 18:32:00,SystemResetWarning,0832.5,5.00,000.00,028.5,026.3,000.0,036.7,030.1,21.7,0000.0,0015.19,0005.69,0004.98
2023-07-18 18:33:00,SystemResetWarning,0832.5,5.00,000.00,028.5,026.7,000.0,036.8,030.2,22.2,0000.0,0015.85,0005.75,0005.00
2023-07-18 18:34:00,SystemResetWarning,0832.5,5.00,000.00,028.6,026.9,000.0,036.8,030.3,22.4,0000.0,0016.56,0005.81,0005.03
2023-07-18 18:35:00,SystemResetWarning,0832.5,4.98,000.00,028.5,025.7,000.0,036.7,030.1,22.8,0000.0,0016.51,0005.80,0005.03
2023-07-18 18:36:00,SystemResetWarning,0832.4,5.01,000.00,028.5,024.9,000.0,036.6,030.0,22.3,0000.0,0015.90,0005.76,0005.00
2023-07-18 18:37:00,SystemResetWarning,0832.4,5.01,000.00,028.5,025.3,000.0,036.6,029.9,21.8,0000.0,0015.99,0005.72,0004.99
2023-07-18 18:38:00,SystemResetWarning,0832.4,5.00,000.00,028.4,025.7,000.0,036.7,029.9,21.9,0000.0,0015.87,0005.68,0005.00
2023-07-18 18:39:00,SystemResetWarning,0832.5,5.00,000.00,028.4,026.2,000.0,036.7,030.0,22.4,0000.0,0015.95,0005.73,0005.02
2023-07-18 18:40:00,SystemResetWarning,0832.5,5.00,000.00,028.5,026.6,000.0,036.8,030.1,22.8,0000.0,0015.72,0005.77,0005.04
2023-07-18 18:41:00,SystemResetWarning,0832.5,5.00,000.00,028.5,027.0,000.0,036.8,030.2,23.1,0000.0,0015.34,0005.79,0005.07
2023-07-18 18:42:00,SystemResetWarning,0832.5,4.99,000.00,028.6,026.4,000.0,036.7,030.2,22.8,0000.0,0015.40,0005.85,0005.10
2023-07-18 18:43:00,SystemResetWarning,0832.5,4.99,000.00,028.5,025.1,000.0,036.7,030.0,22.2,0000.0,0015.31,0005.90,0005.11
2023-07-18 18:44:00,SystemResetWarning,0832.4,5.01,000.00,028.4,025.1,000.0,036.6,029.9,21.9,0000.0,0014.75,0005.97,0005.13
2023-07-18 18:45:00,SystemResetWarning,0832.5,5.01,000.00,028.4,025.5,000.0,036.6,029.9,23.1,0000.0,0014.41,0006.00,0005.15
2023-07-18 18:46:00,SystemResetWarning,0832.5,5.00,000.00,028.4,025.9,000.0,036.7,030.0,21.8,0000.0,0013.72,0006.08,0005.19
2023-07-18 18:47:00,SystemResetWarning,0832.5,5.00,000.00,028.4,026.3,000.0,036.7,030.1,21.7,0000.0,0013.27,0006.14,0005.24
2023-07-18 18:48:00,SystemResetWarning,0832.5,5.00,000.00,028.5,026.8,000.0,036.8,030.2,22.2,0000.0,0013.24,0006.17,0005.27
2023-07-18 18:49:00,SystemResetWarning,0832.5,5.00,000.00,028.5,026.9,000.0,036.7,030.3,22.3,0000.0,0013.19,0006.15,0005.28
2023-07-18 18:50:00,SystemResetWarning,0832.5,4.98,000.00,028.5,025.6,000.0,036.7,030.1,21.8,0000.0,0013.22,0006.13,0005.29
2023-07-18 18:51:00,SystemResetWarning,0832.6,5.01,000.00,028.5,024.8,000.0,036.6,029.9,22.2,0000.0,0013.45,0006.16,0005.31
2023-07-18 18:52:00,SystemResetWarning,0832.5,5.01,000.00,028.4,025.2,000.0,036.6,029.9,23.4,0000.0,0013.71,0006.18,0005.32
2023-07-18 18:53:00,SystemResetWarning,0832.6,4.99,000.00,028.4,025.5,000.0,036.6,029.8,21.9,0000.0,0013.49,0006.20,0005.31
2023-07-18 18:54:00,SystemResetWarning,0832.5,5.00,000.00,028.4,026.0,000.0,036.7,029.9,21.6,0000.0,0013.62,0006.21,0005.34
2023-07-18 18:55:00,SystemResetWarning,0832.5,5.00,000.00,028.4,026.4,000.0,036.7,030.1,22.5,0000.0,0013.55,0006.18,0005.36
2023-07-18 18:56:00,SystemResetWarning,0832.5,5.00,000.00,028.5,026.8,000.0,036.7,030.2,22.9,0000.0,0013.82,0006.19,0005.36
2023-07-18 18:57:00,SystemResetWarning,0832.4,4.99,000.00,028.5,026.2,000.0,036.7,030.2,23.1,0000.0,0013.74,0006.17,0005.36
2023-07-18 18:58:00,SystemResetWarning,0832.4,4.99,000.00,028.4,024.9,000.0,036.6,029.9,22.2,0000.0,0013.86,0006.12,0005.35
2023-07-18 18:59:00,SystemResetWarning,0832.4,5.01,000.00,028.4,025.0,000.0,036.5,029.9,21.7,0000.0,0013.04,0006.07,0005.34
